BAW688 EGLL-LGSR

Flight info

Callsign BAW688
Flight time N/A
Altitude 39000
Route DET1J DET L6 DVR UL9 KONAN DCT KOK DCT SISGA DCT RITAX DCT KRH DCT KUNOD DCT GEDSO DCT VEKEN DCT MSR DCT PINDO DCT KEA UL607 GENDO L607 NETIS M601 PEXAN PEXAN1A
Aircraft A20N/M-SDGHIJ1LRWXY/SB1

Departure

Time 2026-04-30 12:38
Airport London Heathrow Airport (EGLL)

Arrival

Time N/A
Airport Santorini International Airport (LGSR)
Time Latitude Longitude Altitude Speed Heading
2026-04-30 12:28 51.47187 -0.48602 90 ft 0 kts 269°
2026-04-30 12:32 51.47187 -0.48564 79 ft 4 kts 269°
2026-04-30 12:32 51.47187 -0.48529 86 ft 4 kts 264°
2026-04-30 12:33 51.47194 -0.48490 91 ft 4 kts 228°
2026-04-30 12:33 51.47213 -0.48475 88 ft 3 kts 179°
2026-04-30 12:33 51.47216 -0.48475 88 ft 0 kts 179°
2026-04-30 12:35 51.47206 -0.48475 89 ft 5 kts 179°
2026-04-30 12:36 51.47140 -0.48474 86 ft 14 kts 179°
2026-04-30 12:36 51.47028 -0.48472 88 ft 18 kts 179°
2026-04-30 12:36 51.46895 -0.48471 89 ft 20 kts 181°
2026-04-30 12:36 51.46749 -0.48470 86 ft 22 kts 178°
2026-04-30 12:37 51.46594 -0.48471 87 ft 23 kts 180°
2026-04-30 12:37 51.46487 -0.48469 88 ft 11 kts 163°
2026-04-30 12:37 51.46477 -0.48378 90 ft 10 kts 88°
2026-04-30 12:37 51.46479 -0.47991 86 ft 66 kts 89°
2026-04-30 12:38 51.46483 -0.46966 91 ft 117 kts 89°
2026-04-30 12:38 51.46488 -0.45457 199 ft 144 kts 89°
2026-04-30 12:38 51.46476 -0.43820 646 ft 150 kts 91°
2026-04-30 12:38 51.46500 -0.42168 1329 ft 146 kts 91°
2026-04-30 12:39 51.46236 -0.40609 1826 ft 154 kts 116°
2026-04-30 12:39 51.45605 -0.39070 2176 ft 175 kts 124°
2026-04-30 12:39 51.44845 -0.37404 2490 ft 197 kts 124°
2026-04-30 12:39 51.44110 -0.35403 3040 ft 219 kts 116°
2026-04-30 12:40 51.43526 -0.33050 3813 ft 234 kts 110°
2026-04-30 12:40 51.43070 -0.30498 4762 ft 241 kts 106°
2026-04-30 12:40 51.42754 -0.27826 5722 ft 248 kts 103°
2026-04-30 12:40 51.42474 -0.25055 6611 ft 256 kts 102°
2026-04-30 12:41 51.42196 -0.22210 7529 ft 260 kts 102°
2026-04-30 12:41 51.41917 -0.19338 8549 ft 262 kts 102°
2026-04-30 12:41 51.41632 -0.16466 9490 ft 266 kts 102°
2026-04-30 12:41 51.41337 -0.13527 10399 ft 270 kts 102°
2026-04-30 12:42 51.41023 -0.10455 10873 ft 291 kts 101°
2026-04-30 12:42 51.40680 -0.07130 11189 ft 314 kts 101°
2026-04-30 12:42 51.40316 -0.03598 11762 ft 325 kts 101°
2026-04-30 12:42 51.39948 0.00000 12585 ft 329 kts 101°
2026-04-30 12:43 51.39575 0.03643 13369 ft 334 kts 101°
2026-04-30 12:43 51.39198 0.07296 14120 ft 339 kts 101°
2026-04-30 12:43 51.38809 0.11045 14834 ft 343 kts 102°
2026-04-30 12:43 51.38415 0.14835 15557 ft 347 kts 102°
2026-04-30 12:44 51.38015 0.18666 16274 ft 351 kts 102°
2026-04-30 12:44 51.37608 0.22546 16977 ft 355 kts 102°
2026-04-30 12:44 51.37196 0.26473 17671 ft 360 kts 102°
2026-04-30 12:44 51.36778 0.30438 18345 ft 364 kts 102°
2026-04-30 12:45 51.36353 0.34455 18980 ft 367 kts 102°
2026-04-30 12:45 51.35923 0.38499 19643 ft 369 kts 102°
2026-04-30 12:45 51.35496 0.42506 20275 ft 371 kts 102°
2026-04-30 12:45 51.35060 0.46588 20904 ft 373 kts 102°
2026-04-30 12:46 51.34620 0.50686 21535 ft 375 kts 102°
2026-04-30 12:46 51.34173 0.54824 22160 ft 378 kts 102°
2026-04-30 12:46 51.33724 0.58980 22780 ft 380 kts 102°
2026-04-30 12:47 51.32713 0.68285 24059 ft 386 kts 102°
2026-04-30 12:47 51.31528 0.79083 25281 ft 392 kts 102°
2026-04-30 12:48 51.31054 0.83392 25743 ft 395 kts 102°
2026-04-30 12:48 51.30574 0.87728 26204 ft 398 kts 102°
2026-04-30 12:48 51.30089 0.92097 26636 ft 400 kts 102°
2026-04-30 12:48 51.29599 0.96497 27070 ft 403 kts 102°
2026-04-30 12:49 51.29104 1.00921 27502 ft 406 kts 102°
2026-04-30 12:49 51.28604 1.05369 27930 ft 408 kts 102°
2026-04-30 12:49 51.28101 1.09837 28334 ft 410 kts 102°
2026-04-30 12:49 51.27592 1.14342 28710 ft 413 kts 102°
2026-04-30 12:50 51.27079 1.18871 29094 ft 415 kts 102°
2026-04-30 12:50 51.26566 1.23372 29451 ft 418 kts 102°
2026-04-30 12:50 51.26044 1.27940 29808 ft 420 kts 102°
2026-04-30 12:50 51.25515 1.32545 30156 ft 422 kts 102°
2026-04-30 12:51 51.24984 1.37164 30472 ft 425 kts 102°
2026-04-30 12:51 51.24447 1.41813 30786 ft 426 kts 102°
2026-04-30 12:51 51.23903 1.46478 31087 ft 428 kts 103°
2026-04-30 12:51 51.23024 1.50997 31385 ft 427 kts 114°
2026-04-30 12:52 51.21834 1.55345 31756 ft 427 kts 115°
2026-04-30 12:52 51.20635 1.59670 32161 ft 426 kts 115°
2026-04-30 12:52 51.19442 1.63986 32565 ft 425 kts 115°
2026-04-30 12:52 51.18255 1.68300 32956 ft 424 kts 115°
2026-04-30 12:53 51.17074 1.72602 33343 ft 423 kts 115°
2026-04-30 12:53 51.15896 1.76894 33726 ft 422 kts 115°
2026-04-30 12:53 51.14719 1.81177 34080 ft 421 kts 115°
2026-04-30 12:53 51.13545 1.85444 34415 ft 420 kts 115°
2026-04-30 12:54 51.12384 1.89652 34667 ft 421 kts 115°
2026-04-30 12:54 51.11207 1.93910 34911 ft 421 kts 115°
2026-04-30 12:55 51.07355 2.07766 35650 ft 423 kts 115°
2026-04-30 12:55 51.06181 2.11971 35868 ft 423 kts 115°
2026-04-30 12:55 51.04970 2.16297 36079 ft 424 kts 115°
2026-04-30 12:55 51.03770 2.20578 36277 ft 424 kts 115°
2026-04-30 12:56 51.02582 2.24810 36469 ft 425 kts 115°
2026-04-30 12:56 51.01374 2.29106 36691 ft 425 kts 115°
2026-04-30 12:56 51.00165 2.33395 36887 ft 426 kts 115°
2026-04-30 12:56 50.98953 2.37687 37088 ft 426 kts 115°
2026-04-30 12:57 50.97741 2.41971 37295 ft 426 kts 115°
2026-04-30 12:57 50.96525 2.46265 37510 ft 426 kts 115°
2026-04-30 12:57 50.95308 2.50552 37702 ft 426 kts 115°
2026-04-30 12:57 50.94501 2.53389 37829 ft 426 kts 115°
2026-04-30 12:58 50.93283 2.57667 38016 ft 426 kts 115°
2026-04-30 12:58 50.92065 2.61937 38213 ft 425 kts 115°
2026-04-30 12:58 50.90844 2.66211 38386 ft 425 kts 115°
2026-04-30 12:58 50.89621 2.70481 38557 ft 425 kts 115°
2026-04-30 12:59 50.88399 2.74742 38728 ft 425 kts 115°
2026-04-30 12:59 50.87173 2.79008 38894 ft 425 kts 115°
2026-04-30 12:59 50.85950 2.83261 39031 ft 425 kts 115°
2026-04-30 12:59 50.84722 2.87520 39140 ft 425 kts 115°
2026-04-30 13:00 50.82265 2.96016 39240 ft 424 kts 115°
2026-04-30 13:00 50.79806 3.04493 39240 ft 423 kts 115°
2026-04-30 13:01 50.77361 3.12888 39244 ft 423 kts 115°
2026-04-30 13:01 50.74896 3.21325 39242 ft 422 kts 115°
2026-04-30 13:02 50.72427 3.29746 39247 ft 423 kts 115°
2026-04-30 13:02 50.69953 3.38154 39246 ft 422 kts 115°
2026-04-30 13:03 50.67471 3.46555 39256 ft 422 kts 115°
2026-04-30 13:03 50.64986 3.54942 39254 ft 422 kts 115°
2026-04-30 13:04 50.62494 3.63324 39259 ft 422 kts 115°
2026-04-30 13:04 50.59998 3.71691 39258 ft 422 kts 115°
2026-04-30 13:05 50.57491 3.80063 39262 ft 422 kts 115°
2026-04-30 13:06 50.53725 3.92584 39260 ft 422 kts 115°
2026-04-30 13:06 50.51208 4.00919 39269 ft 422 kts 115°
2026-04-30 13:07 50.48685 4.09247 39269 ft 422 kts 115°
2026-04-30 13:07 50.46162 4.17546 39266 ft 420 kts 115°
2026-04-30 13:08 50.43638 4.25815 39265 ft 421 kts 115°
2026-04-30 13:08 50.41100 4.34104 39264 ft 421 kts 115°
2026-04-30 13:09 50.38574 4.42327 39263 ft 421 kts 115°
2026-04-30 13:09 50.36023 4.50606 39265 ft 422 kts 115°
2026-04-30 13:10 50.33467 4.58870 39264 ft 422 kts 115°
2026-04-30 13:10 50.30903 4.67131 39267 ft 422 kts 115°
2026-04-30 13:11 50.28332 4.75390 39268 ft 422 kts 115°
2026-04-30 13:11 50.25753 4.83644 39274 ft 423 kts 115°
2026-04-30 13:12 50.23165 4.91902 39274 ft 423 kts 115°
2026-04-30 13:12 50.20572 5.00144 39275 ft 423 kts 115°
2026-04-30 13:13 50.16675 5.12490 39269 ft 423 kts 115°
2026-04-30 13:14 50.12780 5.24761 39269 ft 422 kts 115°
2026-04-30 13:14 50.08858 5.37058 39268 ft 422 kts 115°
2026-04-30 13:15 50.04927 5.49320 39273 ft 422 kts 115°
2026-04-30 13:16 50.02300 5.57483 39278 ft 422 kts 115°
2026-04-30 13:16 49.99668 5.65636 39280 ft 422 kts 115°
2026-04-30 13:17 49.95729 5.77785 39275 ft 422 kts 115°
2026-04-30 13:18 49.91757 5.89977 39270 ft 422 kts 115°
2026-04-30 13:18 49.87766 6.02171 39262 ft 423 kts 115°
2026-04-30 13:19 49.85093 6.10300 39266 ft 424 kts 115°
2026-04-30 13:19 49.82407 6.18443 39281 ft 424 kts 115°
2026-04-30 13:20 49.79714 6.26585 39288 ft 425 kts 115°
2026-04-30 13:20 49.77009 6.34734 39289 ft 426 kts 115°
2026-04-30 13:21 49.74310 6.42838 39292 ft 426 kts 115°
2026-04-30 13:22 49.70220 6.55075 39297 ft 427 kts 115°
2026-04-30 13:22 49.66124 6.67264 39287 ft 424 kts 115°
2026-04-30 13:23 49.62028 6.79400 39276 ft 425 kts 115°
2026-04-30 13:24 49.56556 6.95522 39283 ft 424 kts 115°
2026-04-30 13:25 49.51091 7.11521 39280 ft 423 kts 115°
2026-04-30 13:26 49.44190 7.31586 39291 ft 427 kts 115°
2026-04-30 13:28 49.37175 7.51816 39293 ft 431 kts 115°
2026-04-30 13:28 49.32928 7.63987 39295 ft 431 kts 115°
2026-04-30 13:29 49.27246 7.80182 39295 ft 431 kts 115°
2026-04-30 13:31 49.20113 8.00371 39295 ft 432 kts 115°
2026-04-30 13:32 49.12933 8.20532 39298 ft 432 kts 115°
2026-04-30 13:33 49.07184 8.36575 39293 ft 432 kts 115°
2026-04-30 13:34 49.02848 8.48633 39293 ft 432 kts 115°
2026-04-30 13:35 48.95947 8.63763 39282 ft 439 kts 128°
2026-04-30 13:36 48.87524 8.77318 39277 ft 441 kts 129°
2026-04-30 13:36 48.81205 8.87433 39282 ft 442 kts 129°
2026-04-30 13:37 48.74834 8.97578 39284 ft 443 kts 129°
2026-04-30 13:38 48.68432 9.07731 39288 ft 444 kts 129°
2026-04-30 13:39 48.59860 9.21263 39287 ft 446 kts 129°
2026-04-30 13:40 48.53407 9.31403 39289 ft 447 kts 130°
2026-04-30 13:40 48.49080 9.38183 39282 ft 451 kts 130°
2026-04-30 13:41 48.44697 9.45032 39281 ft 455 kts 130°
2026-04-30 13:41 48.40301 9.51877 39278 ft 454 kts 130°
2026-04-30 13:42 48.35890 9.58731 39286 ft 455 kts 130°
2026-04-30 13:42 48.29760 9.69479 39290 ft 453 kts 124°
2026-04-30 13:43 48.27257 9.74159 39296 ft 454 kts 124°
2026-04-30 13:43 48.23960 9.80296 39300 ft 455 kts 125°
2026-04-30 13:44 48.19973 9.87683 39303 ft 456 kts 125°
2026-04-30 13:44 48.15972 9.95069 39303 ft 456 kts 125°
2026-04-30 13:45 48.09957 10.06134 39300 ft 457 kts 125°
2026-04-30 13:46 48.05938 10.13503 39298 ft 457 kts 125°
2026-04-30 13:46 48.01930 10.20831 39302 ft 458 kts 125°
2026-04-30 13:47 47.97898 10.28183 39297 ft 458 kts 125°
2026-04-30 13:47 47.93857 10.35531 39295 ft 458 kts 125°
2026-04-30 13:48 47.89804 10.42881 39291 ft 458 kts 125°
2026-04-30 13:48 47.85755 10.50205 39282 ft 458 kts 125°
2026-04-30 13:49 47.81698 10.57522 39284 ft 459 kts 125°
2026-04-30 13:49 47.77628 10.64843 39280 ft 459 kts 125°
2026-04-30 13:50 47.73550 10.72159 39280 ft 459 kts 125°
2026-04-30 13:50 47.67417 10.83125 39279 ft 460 kts 126°
2026-04-30 13:51 47.63346 10.90379 39273 ft 461 kts 126°
2026-04-30 13:51 47.59210 10.97730 39265 ft 461 kts 126°
2026-04-30 13:52 47.55119 11.04979 39259 ft 462 kts 126°
2026-04-30 13:52 47.50980 11.12296 39241 ft 463 kts 126°
2026-04-30 13:53 47.46843 11.19590 39224 ft 463 kts 126°
2026-04-30 13:53 47.42690 11.26890 39219 ft 464 kts 126°
2026-04-30 13:54 47.38523 11.34196 39208 ft 465 kts 126°
2026-04-30 13:54 47.34351 11.41493 39211 ft 466 kts 126°
2026-04-30 13:55 47.30154 11.48815 39202 ft 468 kts 126°
2026-04-30 13:55 47.25968 11.56094 39226 ft 468 kts 127°
2026-04-30 13:56 47.21722 11.63458 39232 ft 469 kts 127°
2026-04-30 13:56 47.17519 11.70727 39233 ft 470 kts 127°
2026-04-30 13:57 47.13277 11.78046 39233 ft 470 kts 127°
2026-04-30 13:57 47.09113 11.85449 39232 ft 468 kts 122°
2026-04-30 13:58 47.04415 11.97879 39214 ft 463 kts 112°
2026-04-30 13:59 47.01592 12.06374 39221 ft 464 kts 112°
2026-04-30 13:59 46.98749 12.14857 39230 ft 464 kts 112°
2026-04-30 14:00 46.95891 12.23338 39240 ft 465 kts 112°
2026-04-30 14:00 46.91607 12.36001 39244 ft 465 kts 113°
2026-04-30 14:01 46.88722 12.44494 39240 ft 466 kts 113°
2026-04-30 14:01 46.85832 12.52980 39238 ft 466 kts 113°
2026-04-30 14:02 46.82937 12.61450 39233 ft 467 kts 113°
2026-04-30 14:02 46.80032 12.69922 39219 ft 466 kts 113°
2026-04-30 14:03 46.77129 12.78360 39208 ft 465 kts 113°
2026-04-30 14:03 46.74211 12.86811 39213 ft 466 kts 113°
2026-04-30 14:04 46.71311 12.95190 39215 ft 466 kts 114°
2026-04-30 14:04 46.68381 13.03623 39221 ft 467 kts 114°
2026-04-30 14:05 46.65442 13.12058 39226 ft 467 kts 114°
2026-04-30 14:05 46.62497 13.20483 39236 ft 467 kts 114°
2026-04-30 14:06 46.57992 13.33070 39242 ft 470 kts 118°
2026-04-30 14:07 46.52001 13.44419 39253 ft 476 kts 132°
2026-04-30 14:08 46.45019 13.54612 39256 ft 475 kts 132°
2026-04-30 14:08 46.38041 13.64844 39247 ft 474 kts 133°
2026-04-30 14:09 46.33411 13.71608 39240 ft 472 kts 133°
2026-04-30 14:10 46.26449 13.81738 39246 ft 474 kts 133°
2026-04-30 14:10 46.21785 13.88506 39260 ft 476 kts 133°
2026-04-30 14:11 46.17096 13.95289 39280 ft 478 kts 133°
2026-04-30 14:11 46.12388 14.02082 39294 ft 479 kts 133°
2026-04-30 14:12 46.07655 14.08894 39309 ft 481 kts 133°
2026-04-30 14:12 46.02932 14.15675 39317 ft 482 kts 133°
2026-04-30 14:13 45.98170 14.22493 39307 ft 484 kts 133°
2026-04-30 14:13 45.93375 14.29342 39303 ft 487 kts 133°
2026-04-30 14:14 45.88560 14.36199 39300 ft 487 kts 134°
2026-04-30 14:14 45.83741 14.43047 39307 ft 488 kts 134°
2026-04-30 14:15 45.78912 14.49889 39300 ft 488 kts 134°
2026-04-30 14:15 45.74111 14.56676 39303 ft 488 kts 134°
2026-04-30 14:16 45.69267 14.63505 39308 ft 488 kts 134°
2026-04-30 14:16 45.64426 14.70313 39304 ft 489 kts 134°
2026-04-30 14:17 45.59574 14.77120 39306 ft 489 kts 134°
2026-04-30 14:17 45.54713 14.83921 39299 ft 490 kts 134°
2026-04-30 14:18 45.49841 14.90720 39303 ft 490 kts 134°
2026-04-30 14:18 45.42517 15.00908 39309 ft 491 kts 135°
2026-04-30 14:19 45.35196 15.11055 39313 ft 492 kts 135°
2026-04-30 14:20 45.30281 15.17844 39318 ft 493 kts 135°
2026-04-30 14:20 45.22883 15.28030 39320 ft 494 kts 135°
2026-04-30 14:21 45.17942 15.34812 39323 ft 494 kts 135°
2026-04-30 14:22 45.10518 15.44969 39321 ft 495 kts 135°
2026-04-30 14:22 45.03107 15.55071 39322 ft 495 kts 135°
2026-04-30 14:23 44.93165 15.68562 39318 ft 495 kts 136°
2026-04-30 14:24 44.85700 15.78647 39314 ft 496 kts 136°
2026-04-30 14:25 44.75712 15.92082 39312 ft 496 kts 136°
2026-04-30 14:26 44.68201 16.02138 39301 ft 496 kts 136°
2026-04-30 14:27 44.60727 16.12111 39296 ft 496 kts 136°
2026-04-30 14:27 44.55721 16.18768 39298 ft 496 kts 136°
2026-04-30 14:28 44.48198 16.28743 39291 ft 496 kts 136°
2026-04-30 14:28 44.43176 16.35380 39281 ft 496 kts 136°
2026-04-30 14:29 44.33963 16.47515 39280 ft 497 kts 137°
2026-04-30 14:31 44.21337 16.64057 39276 ft 498 kts 137°
2026-04-30 14:31 44.13751 16.73948 39276 ft 498 kts 137°
2026-04-30 14:32 44.06159 16.83808 39276 ft 497 kts 138°
2026-04-30 14:33 44.01132 16.90318 39265 ft 497 kts 138°
2026-04-30 14:33 43.93540 17.00118 39257 ft 497 kts 138°
2026-04-30 14:34 43.88477 17.06634 39251 ft 497 kts 138°
2026-04-30 14:34 43.83406 17.13145 39244 ft 497 kts 139°
2026-04-30 14:35 43.75795 17.22885 39227 ft 497 kts 139°
2026-04-30 14:36 43.70721 17.29360 39214 ft 497 kts 139°
2026-04-30 14:36 43.65631 17.35840 39212 ft 497 kts 139°
2026-04-30 14:37 43.60534 17.42312 39209 ft 497 kts 139°
2026-04-30 14:37 43.55431 17.48777 39198 ft 498 kts 139°
2026-04-30 14:38 43.50329 17.55226 39178 ft 498 kts 139°
2026-04-30 14:38 43.45218 17.61669 39161 ft 498 kts 139°
2026-04-30 14:39 43.40134 17.68063 39154 ft 499 kts 140°
2026-04-30 14:39 43.35007 17.74502 39153 ft 500 kts 140°
2026-04-30 14:40 43.27294 17.84166 39159 ft 500 kts 140°
2026-04-30 14:40 43.22022 17.90382 39157 ft 500 kts 141°
2026-04-30 14:41 43.16744 17.96635 39156 ft 501 kts 141°
2026-04-30 14:41 43.11462 18.02881 39145 ft 502 kts 141°
2026-04-30 14:42 43.06157 18.09119 39147 ft 502 kts 142°
2026-04-30 14:42 43.00878 18.15302 39136 ft 502 kts 142°
2026-04-30 14:43 42.95565 18.21508 39134 ft 502 kts 142°
2026-04-30 14:43 42.90249 18.27704 39130 ft 502 kts 142°
2026-04-30 14:44 42.84928 18.33890 39126 ft 502 kts 142°
2026-04-30 14:44 42.79603 18.40067 39119 ft 502 kts 142°
2026-04-30 14:45 42.74284 18.46223 39114 ft 502 kts 142°
2026-04-30 14:45 42.68958 18.52372 39118 ft 502 kts 142°
2026-04-30 14:46 42.63671 18.58463 39117 ft 501 kts 142°
2026-04-30 14:46 42.58346 18.64583 39114 ft 501 kts 142°
2026-04-30 14:47 42.53025 18.70685 39110 ft 500 kts 143°
2026-04-30 14:47 42.47704 18.76771 39107 ft 500 kts 143°
2026-04-30 14:48 42.42382 18.82845 39102 ft 500 kts 143°
2026-04-30 14:48 42.37060 18.88905 39105 ft 500 kts 143°
2026-04-30 14:49 42.31727 18.94964 39106 ft 500 kts 143°
2026-04-30 14:49 42.26432 19.00967 39132 ft 500 kts 143°
2026-04-30 14:50 42.18393 19.10052 39133 ft 501 kts 143°
2026-04-30 14:51 42.10402 19.19054 39128 ft 502 kts 143°
2026-04-30 14:52 42.02357 19.28085 39119 ft 502 kts 143°
2026-04-30 14:52 41.94295 19.37104 39122 ft 503 kts 144°
2026-04-30 14:53 41.86213 19.46116 39125 ft 503 kts 144°
2026-04-30 14:54 41.75424 19.58097 39111 ft 503 kts 144°
2026-04-30 14:55 41.67318 19.67064 39107 ft 504 kts 144°
2026-04-30 14:56 41.56482 19.79002 39104 ft 505 kts 144°
2026-04-30 14:57 41.48338 19.87941 39088 ft 505 kts 144°
2026-04-30 14:58 41.37501 19.99788 39090 ft 505 kts 144°
2026-04-30 14:58 41.29345 20.08668 39089 ft 504 kts 144°
2026-04-30 15:00 41.15969 20.23175 39074 ft 489 kts 145°
2026-04-30 15:01 41.05449 20.34521 39080 ft 487 kts 145°
2026-04-30 15:01 40.97564 20.42998 39067 ft 485 kts 145°
2026-04-30 15:02 40.92324 20.48617 39056 ft 483 kts 146°
2026-04-30 15:03 40.79321 20.62505 39034 ft 480 kts 146°
2026-04-30 15:04 40.66315 20.76324 39037 ft 483 kts 146°
2026-04-30 15:06 40.53189 20.90204 39029 ft 484 kts 146°
2026-04-30 15:07 40.42921 21.01602 39013 ft 485 kts 140°
2026-04-30 15:08 40.33082 21.13693 39000 ft 484 kts 141°
2026-04-30 15:09 40.20694 21.28587 38999 ft 484 kts 141°
2026-04-30 15:10 40.10721 21.40511 39001 ft 487 kts 141°
2026-04-30 15:11 39.95621 21.58251 38982 ft 486 kts 141°
2026-04-30 15:13 39.83022 21.72957 38968 ft 486 kts 141°
2026-04-30 15:14 39.66239 21.92418 38967 ft 487 kts 141°
2026-04-30 15:17 39.43569 22.18494 38966 ft 482 kts 141°
2026-04-30 15:19 39.23488 22.41396 38979 ft 480 kts 141°